Wind_Speed
24 23 21 19 17 15 12 10 9 8 9 10 11 11 13 17 19 10 13 2 2 7 8 9 12 16 15 14 8 8 10 11 9 6 3 10 5 2 2 11 6 3 4 6 3
26 25 23 21 19 17 14 11 9 9 10 11 11 12 13 18 19 16 4 7 9 12 9 14 14 15 13 13 8 10 10 13 9 4 6 4 6 7 5 9 10 11 6 4 6
29 27 25 23 20 18 15 13 10 10 10 11 11 12 13 16 14 4 8 7 4 7 14 14 15 13 16 12 13 12 15 15 7 7 9 11 11 8 8 12 11 5 7 6 9
31 29 27 25 22 19 16 14 11 9 11 12 12 12 11 9 3 10 12 7 4 5 10 12 14 16 17 17 15 17 17 13 15 11 9 13 13 12 11 13 9 5 5 8 7
33 31 29 27 24 20 17 15 12 9 10 11 12 11 7 8 12 7 11 6 5 7 10 10 14 14 17 15 15 16 15 18 12 13 13 13 15 14 14 13 2 2 2 3 6
35 33 31 28 25 22 19 16 13 10 9 11 12 10 9 14 1 5 7 8 12 12 14 13 10 11 15 15 15 13 10 15 11 13 12 15 17 14 11 4 6 2 1 3 5
36 35 33 30 26 23 21 16 14 10 8 8 10 8 10 16 3 7 6 8 8 10 11 15 13 8 7 11 14 11 14 16 17 17 17 14 17 20 14 9 6 6 4 1 4
38 36 34 32 29 24 21 17 14 10 7 5 8 9 8 4 11 13 13 15 12 10 8 4 9 12 14 13 7 13 16 16 14 7 10 7 15 6 12 10 11 7 4 4 5
39 37 35 33 30 24 22 17 12 9 7 3 5 7 10 6 13 16 16 17 18 15 13 11 10 14 11 15 14 16 14 16 12 11 5 12 12 14 11 12 6 7 8 3 7
40 38 36 35 31 26 22 14 9 5 4 3 11 7 11 11 11 10 11 11 11 13 12 13 10 13 15 13 15 15 17 14 14 10 7 13 16 13 11 13 9 11 5 5 5
42 38 37 36 32 28 24 10 6 6 15 11 10 14 2 5 8 14 14 14 9 14 15 16 14 19 22 20 21 18 15 16 13 8 12 13 17 18 14 12 11 10 9 7 7
42 38 37 36 34 32 27 16 10 5 7 25 26 17 9 3 9 14 18 15 12 15 16 11 21 21 19 18 17 18 18 19 17 15 12 14 18 18 15 9 7 6 10 10 10
44 40 38 37 34 32 29 29 3 4 6 13 25 26 20 17 13 18 18 20 15 16 17 20 11 17 19 17 15 16 17 16 17 15 14 18 22 22 6 6 6 9 11 11 8
50 47 43 37 31 30 30 22 5 2 5 13 20 14 23 20 15 29 26 21 16 20 19 18 21 10 13 19 16 17 16 17 15 14 11 5 7 4 15 14 13 12 12 10 8
51 48 49 54 23 32 29 23 7 0 5 8 21 6 15 23 6 19 33 20 22 19 15 17 15 19 17 18 16 16 13 9 13 15 17 18 10 18 20 18 14 13 12 9 7
53 54 55 48 24 34 28 20 7 6 14 9 11 14 16 23 12 7 17 24 19 20 19 22 10 13 17 16 13 5 9 13 14 12 14 19 16 11 11 15 20 14 11 9 6
52 59 62 51 25 39 41 14 8 10 9 14 12 16 22 17 21 16 21 26 15 20 22 19 21 12 10 12 10 15 11 6 9 9 12 3 8 15 12 12 16 14 11 7 4
53 60 58 41 41 46 35 14 10 14 20 9 16 20 22 18 21 21 21 23 26 22 14 16 13 24 17 21 12 17 17 8 5 8 9 9 7 5 15 13 12 11 9 4 3
50 52 37 39 53 52 17 14 14 14 31 14 17 21 19 23 14 19 21 22 24 23 12 17 13 5 7 16 20 16 18 18 19 17 12 11 9 9 14 14 14 11 8 5 2
36 26 21 55 55 39 16 15 18 19 27 21 19 22 23 27 16 19 21 20 19 22 16 5 8 7 10 7 17 21 9 9 10 6 12 11 15 10 17 14 12 10 4 3 6
20 7 25 52 46 16 16 17 16 16 17 24 25 18 22 24 21 24 20 6 21 19 17 8 10 10 11 16 16 13 15 13 10 11 5 9 3 9 16 15 11 5 1 6 11
4 5 37 48 12 12 17 20 18 18 8 4 6 24 19 21 24 23 15 16 14 16 21 14 7 10 17 7 12 13 20 18 7 6 8 7 7 10 12 12 7 5 5 10 12
3 3 34 36 12 17 15 21 15 21 18 8 10 15 15 18 15 20 16 7 10 16 14 15 9 9 6 10 12 14 20 21 18 4 17 11 3 10 9 8 9 8 10 11 12
4 5 1 3 7 22 22 24 26 20 19 14 5 5 10 16 17 15 12 4 6 12 4 8 8 13 13 7 5 24 21 20 18 10 16 20 21 14 12 12 12 12 12 12 13
3 4 7 11 14 24 28 22 26 10 19 24 13 17 17 7 13 13 15 9 7 3 5 10 12 19 20 14 11 13 24 22 23 21 18 17 23 13 14 16 12 11 12 14 15
5 5 4 17 19 23 26 18 34 22 21 24 23 23 19 9 13 9 16 12 10 11 13 9 4 12 15 8 8 13 13 18 22 20 19 20 21 15 14 8 10 12 13 15 17
4 5 9 16 19 20 24 29 28 24 15 22 21 12 13 3 6 5 1 7 5 11 17 12 8 9 9 11 9 13 20 19 18 17 18 17 17 11 9 12 11 12 15 16 17
Wind_Direction
223 223 224 225 223 226 230 238 259 272 285 299 310 318 318 317 311 278 253 109 173 238 229 230 207 217 234 247 241 251 261 250 234 193 217 135 223 199 296 262 251 293 307 330 44
222 222 223 225 226 224 226 232 250 274 287 298 307 317 319 319 306 268 222 246 238 222 233 208 209 209 223 230 213 238 251 261 21 350 271 253 225 257 260 252 261 238 252 297 308
222 221 221 223 225 226 225 229 241 267 286 300 303 311 317 317 279 126 156 138 138 198 224 234 243 218 236 226 217 237 251 289 303 239 268 271 275 246 251 258 251 307 292 290 267
221 222 220 220 221 225 228 227 232 257 282 295 303 314 318 303 307 124 161 137 139 219 234 221 230 233 237 243 226 254 256 272 279 282 260 263 270 271 254 266 317 293 297 281 287
220 220 221 219 219 218 226 232 228 243 275 296 305 318 324 240 259 156 194 206 230 232 234 219 228 231 241 243 252 246 262 275 267 267 266 263 265 270 276 280 291 44 274 5 15
219 219 218 218 216 215 217 227 234 234 264 293 304 315 266 252 100 173 194 217 237 230 238 231 232 241 263 264 254 254 284 278 265 259 254 258 267 263 256 104 153 203 198 57 39
221 218 217 216 214 215 214 214 230 236 251 282 299 306 260 242 187 202 201 228 216 238 240 228 242 231 220 258 254 260 265 259 248 247 251 256 265 247 236 158 205 175 169 110 41
222 217 214 214 214 209 215 208 217 236 248 273 297 284 260 254 233 228 229 238 229 229 247 255 237 252 252 264 244 248 253 258 254 216 217 234 269 141 175 165 224 167 172 173 79
221 217 213 213 211 202 211 205 208 227 249 267 281 243 261 188 227 230 227 229 221 221 233 235 236 235 218 243 246 233 255 244 197 171 188 207 264 129 168 219 259 237 179 154 116
219 217 213 210 207 196 198 190 208 223 234 230 256 265 238 223 185 172 176 185 180 195 197 209 215 224 227 223 234 234 224 228 262 153 211 239 241 263 243 254 215 232 142 177 137
219 214 211 207 200 190 178 152 199 207 211 206 205 222 148 176 155 198 178 185 193 183 202 205 211 221 228 222 253 276 284 275 272 265 263 253 253 260 254 254 244 200 190 172 141
214 214 209 204 194 190 185 206 213 1 226 225 246 235 260 209 189 208 180 191 194 209 206 185 227 235 235 250 237 242 257 261 272 272 276 276 265 265 258 273 306 184 162 157 156
215 205 208 198 190 187 199 212 332 305 263 243 215 230 218 214 223 195 195 211 214 227 223 226 231 231 242 236 236 244 251 263 269 288 285 272 264 266 142 132 130 130 141 150 144
216 199 193 188 178 188 204 201 174 85 272 236 206 228 219 211 244 232 201 225 227 233 231 230 244 212 236 230 231 244 242 250 267 267 267 142 284 147 158 147 152 146 154 148 147
211 198 188 185 176 193 190 182 188 191 260 219 190 170 194 188 136 203 217 209 230 215 226 220 226 227 227 229 227 253 269 265 262 267 272 260 253 255 179 169 163 158 147 144 116
209 197 184 175 178 180 166 161 145 190 230 198 140 187 177 202 207 140 204 220 228 237 227 243 196 232 243 235 235 226 259 249 253 254 255 248 239 251 219 201 148 147 151 138 122
200 197 182 173 173 163 154 157 169 215 172 177 177 183 194 190 201 192 184 190 196 203 218 213 236 217 235 210 202 219 220 242 222 222 239 249 222 227 105 104 141 151 140 142 159
195 197 178 169 165 157 165 164 205 210 215 123 178 173 193 179 202 195 188 192 209 206 198 211 211 210 188 219 194 209 215 214 251 256 296 105 216 142 108 114 109 121 132 142 79
194 186 177 169 160 154 165 186 212 212 199 181 165 178 194 182 187 192 193 199 197 203 217 188 219 172 203 206 228 203 219 239 266 268 268 258 114 126 144 139 137 133 136 119 47
181 180 184 167 159 156 175 207 209 223 181 187 181 189 188 185 197 192 191 203 196 201 224 219 197 223 152 231 228 241 221 209 231 241 239 230 227 242 163 158 144 141 114 37 334
185 166 164 163 155 164 195 204 197 199 218 215 209 190 203 188 199 196 187 153 189 192 202 214 232 174 163 206 200 202 225 218 242 212 256 276 250 101 154 155 154 129 266 323 331
187 156 161 166 161 181 208 196 209 193 186 277 263 234 226 193 200 194 212 188 195 184 194 210 222 183 202 233 240 235 214 207 215 209 224 272 280 127 131 139 165 225 315 342 325
201 111 173 183 172 189 195 200 202 209 191 187 224 235 220 225 206 216 204 76 160 181 187 182 207 201 257 202 228 230 219 217 217 216 232 228 173 133 136 181 222 340 349 328 315
114 152 170 221 209 190 181 196 203 223 216 196 217 269 206 218 200 205 174 136 196 204 36 174 194 210 220 213 268 212 223 218 224 223 233 238 251 228 248 255 337 342 327 311 311
168 178 184 179 194 200 189 181 190 179 212 203 211 221 190 192 212 207 195 141 184 163 203 172 220 223 240 274 262 256 214 220 223 223 239 255 261 280 300 308 332 318 301 304 307
153 148 205 182 170 191 189 196 198 191 173 201 207 204 222 183 193 187 200 173 175 186 193 199 230 240 234 202 253 251 235 228 229 234 235 252 261 280 289 317 303 303 308 308 312
185 168 173 167 175 187 196 194 203 192 216 214 203 178 213 158 97 37 158 189 185 193 183 184 169 180 215 210 233 260 230 231 232 233 239 249 271 283 291 286 298 318 302 300 300
Height
786 789 791 793 794 795 795 796 797 796 795 794 792 790 788 784 780 778 772 770 773 774 775 772 772 770 767 762 761 757 770 763 751 762 752 753 763 754 751 755 748 749 751 753 757
782 785 787 790 792 793 794 794 795 796 795 793 792 790 787 783 780 771 769 769 771 773 773 769 766 765 763 759 757 763 761 752 740 746 753 751 758 755 757 755 753 749 748 751 754
777 780 783 787 789 791 791 792 792 794 794 793 791 788 787 783 777 759 767 768 769 771 771 767 763 761 762 753 755 758 765 744 744 748 749 753 753 749 754 758 746 749 750 752 752
772 776 779 782 786 789 791 791 791 792 793 792 790 788 785 784 773 763 767 768 770 771 769 765 764 764 765 761 750 763 752 750 749 745 750 756 748 751 749 748 742 747 751 752 751
766 771 776 779 782 785 788 791 789 789 792 792 790 788 784 776 764 763 766 768 770 770 766 763 763 761 765 756 750 754 755 749 744 749 749 750 754 752 748 741 742 751 756 755 756
760 765 771 775 779 782 784 789 789 787 789 790 790 788 785 779 764 765 766 768 768 767 764 761 759 756 757 756 754 747 752 751 745 749 749 755 750 747 742 740 749 756 756 758 760
755 759 767 771 775 780 782 784 788 787 786 787 790 789 782 767 762 764 764 766 765 765 760 759 758 761 756 761 751 753 764 753 748 747 750 746 753 746 735 741 747 752 756 760 761
749 754 760 767 773 775 782 781 784 786 785 785 788 789 773 761 761 760 762 764 765 766 765 761 762 760 757 752 759 763 758 762 734 737 739 753 754 724 729 741 743 743 754 759 764
743 749 755 763 770 771 782 782 782 784 785 783 788 787 768 757 758 754 756 758 760 764 765 764 765 762 760 768 767 755 764 747 739 734 741 753 745 729 733 737 742 740 747 756 764
734 742 749 759 767 769 780 783 782 784 784 784 786 786 760 748 748 751 753 756 757 760 763 764 762 762 760 761 769 752 749 747 747 739 747 747 747 734 728 729 734 739 748 757 763
727 735 744 754 762 768 778 783 785 780 776 758 753 750 743 744 747 750 752 753 753 756 762 758 765 758 750 746 744 741 745 747 734 727 737 742 743 735 726 727 730 733 749 757 765
718 730 740 750 757 764 772 767 761 761 759 755 752 752 749 743 744 744 749 750 752 755 748 753 757 740 736 736 741 748 753 750 739 733 739 743 740 728 723 725 729 729 748 758 764
708 720 735 746 755 764 765 765 764 762 754 739 743 744 742 745 739 737 744 741 743 748 741 745 738 733 737 740 752 750 754 751 750 737 735 741 738 722 728 735 738 741 749 756 762
702 712 722 741 755 760 760 767 766 763 761 734 733 728 731 736 737 733 732 739 739 743 737 737 731 742 743 744 745 754 739 744 751 754 757 734 749 722 735 744 746 751 755 760 765
694 702 714 722 735 746 755 764 764 764 784 712 710 715 713 724 717 723 727 732 737 735 736 736 736 736 746 741 737 746 737 748 751 752 747 739 745 721 714 738 746 752 756 761 766
689 696 707 724 734 744 752 762 765 771 755 708 709 719 722 722 719 724 727 726 727 733 732 728 725 731 731 732 736 741 749 752 749 750 756 736 737 722 708 715 735 750 758 764 768
684 687 696 708 717 734 746 759 767 755 693 695 709 709 715 718 719 724 724 729 732 745 742 736 732 732 731 739 738 743 755 763 762 759 751 713 725 719 723 723 735 750 759 765 768
680 683 687 697 714 722 740 748 745 694 687 676 688 701 710 706 712 717 717 721 719 718 721 735 740 726 725 731 737 740 742 757 767 743 730 721 741 720 728 738 743 751 759 764 768
674 678 683 691 703 713 733 739 699 684 677 681 686 701 700 700 701 708 709 708 708 704 715 716 721 709 721 725 726 731 745 731 743 737 749 731 728 739 739 746 749 756 759 765 769
666 671 677 685 696 710 725 710 685 669 665 671 683 683 688 691 696 700 700 690 696 697 699 708 724 721 725 728 724 725 722 750 747 766 755 718 712 704 742 750 752 759 763 768 770
660 658 671 680 690 706 706 691 685 662 669 675 672 674 671 680 684 691 686 692 685 695 700 706 711 730 727 732 728 734 737 731 732 742 752 736 717 719 734 745 754 760 766 767 770
649 654 664 674 681 696 692 675 675 670 672 682 678 668 668 668 679 681 681 684 685 693 706 709 718 731 728 712 712 714 725 728 747 751 746 744 736 729 737 748 757 757 759 766 770
644 659 663 663 667 679 678 677 674 673 673 689 688 671 666 673 682 674 680 701 696 700 705 706 723 734 738 726 725 724 714 719 727 749 743 752 734 732 741 749 747 749 759 766 768
649 658 664 661 660 661 666 671 680 678 675 684 688 690 687 678 672 678 686 716 711 704 722 708 715 718 715 705 704 722 717 716 720 746 741 725 727 726 725 732 740 751 760 764 765
637 646 640 651 658 650 654 658 672 682 674 674 688 693 690 701 685 690 688 717 720 725 718 712 727 717 712 707 716 705 713 712 721 730 739 731 720 724 730 736 746 755 758 760 761
633 636 640 631 642 654 653 652 657 666 669 666 672 685 683 697 691 711 691 708 714 721 718 723 733 720 725 723 727 721 711 710 714 719 725 731 729 731 731 740 751 754 758 759 761
629 628 623 621 638 648 636 635 643 657 664 661 672 683 694 706 705 709 709 714 719 721 724 729 737 738 736 735 735 739 725 721 722 722 728 735 733 731 739 747 751 757 761 760 759